| time (UTC) | temp C | wind direction | speed KPH | gust KPH | rain 1hr cm | rain 24hr cm | rain mn cm | humidity % | barometer mb |
| 20260507080057 | 8 | 0 | 0.0 | 1.6 | 0.03 | 1.04 | 0.03 | 91 | 1009.0 |
| 20260507075522 | 8 | 0 | 0.0 | 4.8 | 0.03 | 1.04 | 0.03 | 90 | 1009.2 |
| 20260507075024 | 8 | 297 | 0.0 | 4.8 | 0.03 | 1.04 | 0.03 | 89 | 1009.3 |
| 20260507074538 | 8 | 0 | 1.6 | 4.8 | 0.00 | 1.02 | 0.00 | 88 | 1009.3 |
| 20260507074022 | 8 | 0 | 0.0 | 3.2 | 0.00 | 1.02 | 0.00 | 88 | 1009.2 |
| 20260507073520 | 8 | 0 | 0.0 | 3.2 | 0.00 | 1.02 | 0.00 | 88 | 1009.2 |
| 20260507073040 | 8 | 0 | 0.0 | 3.2 | 0.00 | 1.02 | 0.00 | 88 | 1009.0 |
| 20260507072524 | 8 | 336 | 0.0 | 4.8 | 0.00 | 1.02 | 0.00 | 88 | 1008.7 |
| 20260507072022 | 8 | 296 | 0.0 | 4.8 | 0.00 | 1.02 | 0.00 | 88 | 1009.0 |
| 20260507071540 | 8 | 289 | 0.0 | 4.8 | 0.00 | 1.02 | 0.00 | 88 | 1008.9 |
| 20260507071020 | 8 | 303 | 0.0 | 3.2 | 0.00 | 1.02 | 0.00 | 88 | 1008.9 |
| 20260507070523 | 8 | 286 | 0.0 | 4.8 | 0.00 | 1.02 | 0.00 | 88 | 1008.9 |
| 20260507070038 | 8 | 0 | 0.0 | 4.8 | 0.00 | 1.02 | 0.00 | 89 | 1009.2 |
| 20260507065521 | 8 | 292 | 0.0 | 3.2 | 0.00 | 1.02 | 0.00 | 88 | 1009.0 |
| 20260507065022 | 8 | 0 | 0.0 | 3.2 | 0.00 | 1.02 | 0.00 | 89 | 1008.7 |
| 20260507064538 | 8 | 287 | 0.0 | 4.8 | 0.00 | 1.02 | 0.00 | 89 | 1008.6 |
| 20260507064023 | 8 | 0 | 1.6 | 4.8 | 0.00 | 1.02 | 0.00 | 89 | 1008.7 |
| 20260507063521 | 8 | 0 | 1.6 | 4.8 | 0.00 | 1.02 | 0.00 | 89 | 1008.8 |
| 20260507063048 | 8 | 276 | 1.6 | 4.8 | 0.00 | 1.02 | 0.00 | 89 | 1008.6 |
| 20260507062523 | 8 | 312 | 0.0 | 3.2 | 0.00 | 1.02 | 0.00 | 90 | 1008.4 |
| 20260507062021 | 8 | 291 | 0.0 | 3.2 | 0.00 | 1.02 | 0.00 | 90 | 1008.6 |
| 20260507061543 | 8 | 310 | 1.6 | 3.2 | 0.00 | 1.02 | 0.00 | 90 | 1008.6 |
| 20260507061022 | 8 | 293 | 0.0 | 3.2 | 0.00 | 1.02 | 0.00 | 91 | 1008.5 |
| 20260507060522 | 8 | 0 | 0.0 | 1.6 | 0.00 | 1.02 | 0.00 | 91 | 1008.6 |
| 20260507060040 | 9 | 0 | 0.0 | 1.6 | 0.00 | 1.02 | 0.00 | 91 | 1008.8 |
| 20260507055521 | 9 | 309 | 0.0 | 1.6 | 0.00 | 1.02 | 0.00 | 91 | 1008.9 |
| 20260507055025 | 9 | 0 | 0.0 | 1.6 | 0.00 | 1.02 | 0.00 | 92 | 1008.8 |
| 20260507054540 | 9 | 0 | 0.0 | 1.6 | 0.00 | 1.02 | 0.00 | 92 | 1009.0 |
| 20260507054022 | 9 | 0 | 0.0 | 4.8 | 0.00 | 1.02 | 0.00 | 92 | 1008.9 |
| 20260507053523 | 9 | 304 | 0.0 | 4.8 | 0.00 | 1.02 | 0.00 | 92 | 1009.1 |
| 20260507053038 | 9 | 283 | 0.0 | 4.8 | 0.00 | 1.02 | 0.00 | 92 | 1009.0 |
| 20260507052522 | 9 | 319 | 0.0 | 1.6 | 0.00 | 1.02 | 0.00 | 93 | 1008.9 |
| 20260507052024 | 10 | 0 | 0.0 | 1.6 | 0.00 | 1.02 | 0.00 | 93 | 1009.0 |
| 20260507051538 | 10 | 300 | 0.0 | 1.6 | 0.00 | 1.02 | 0.00 | 93 | 1009.0 |
| 20260507051022 | 10 | 328 | 0.0 | 1.6 | 0.00 | 1.02 | 0.00 | 93 | 1008.9 |
| 20260507050521 | 10 | 0 | 0.0 | 1.6 | 0.00 | 1.02 | 0.00 | 93 | 1008.8 |
| 20260507050046 | 10 | 0 | 0.0 | 1.6 | 0.00 | 1.02 | 0.00 | 93 | 1008.7 |
| 20260507045521 | 10 | 307 | 0.0 | 1.6 | 0.00 | 1.02 | 0.00 | 93 | 1008.7 |
| 20260507045020 | 10 | 307 | 0.0 | 1.6 | 0.00 | 1.02 | 0.00 | 93 | 1008.7 |
| 20260507044543 | 10 | 0 | 0.0 | 4.8 | 0.00 | 1.02 | 0.00 | 93 | 1008.8 |
| 20260507044024 | 10 | 0 | 0.0 | 4.8 | 0.00 | 1.02 | 0.00 | 93 | 1009.0 |
| 20260507043523 | 10 | 0 | 0.0 | 4.8 | 0.00 | 1.02 | 0.00 | 93 | 1009.0 |
| 20260507043038 | 10 | 0 | 0.0 | 6.4 | 0.00 | 1.02 | 0.00 | 93 | 1008.9 |
| 20260507042523 | 10 | 0 | 1.6 | 6.4 | 0.00 | 1.02 | 0.00 | 93 | 1008.9 |
| 20260507042022 | 10 | 307 | 0.0 | 3.2 | 0.00 | 1.02 | 0.00 | 93 | 1009.0 |
| 20260507041539 | 10 | 280 | 0.0 | 4.8 | 0.00 | 1.02 | 0.00 | 93 | 1009.0 |
| 20260507041021 | 10 | 321 | 1.6 | 4.8 | 0.00 | 1.02 | 0.00 | 92 | 1009.0 |
| 20260507040523 | 10 | 281 | 1.6 | 4.8 | 0.00 | 1.02 | 0.00 | 93 | 1008.7 |
| 20260507040042 | 10 | 0 | 0.0 | 4.8 | 0.00 | 1.02 | 0.00 | 94 | 1008.4 |
| 20260507035522 | 10 | 0 | 0.0 | 4.8 | 0.00 | 1.02 | 1.02 | 94 | 1008.5 |
| 20260507035022 | 11 | 0 | 0.0 | 3.2 | 0.00 | 1.02 | 1.02 | 94 | 1008.5 |
| 20260507034549 | 11 | 0 | 0.0 | 8.0 | 0.00 | 1.02 | 1.02 | 93 | 1008.3 |
| 20260507034023 | 11 | 301 | 0.0 | 8.0 | 0.00 | 1.02 | 1.02 | 93 | 1008.2 |
| 20260507033523 | 11 | 0 | 0.0 | 3.2 | 0.00 | 1.02 | 1.02 | 93 | 1008.2 |
| 20260507033040 | 11 | 281 | 0.0 | 4.8 | 0.00 | 1.02 | 1.02 | 92 | 1008.2 |
| 20260507032523 | 11 | 294 | 0.0 | 4.8 | 0.00 | 1.02 | 1.02 | 92 | 1008.3 |
| 20260507032023 | 11 | 298 | 1.6 | 4.8 | 0.00 | 1.02 | 1.02 | 92 | 1008.1 |
| 20260507031538 | 11 | 330 | 1.6 | 4.8 | 0.00 | 1.02 | 1.02 | 92 | 1008.1 |
| 20260507031022 | 12 | 0 | 1.6 | 9.7 | 0.00 | 1.02 | 1.02 | 92 | 1008.2 |
| 20260507030523 | 12 | 285 | 0.0 | 9.7 | 0.00 | 1.02 | 1.02 | 93 | 1008.2 |
| 20260507030038 | 12 | 291 | 0.0 | 9.7 | 0.00 | 1.02 | 1.02 | 93 | 1008.2 |
| 20260507025522 | 13 | 308 | 0.0 | 8.0 | 0.00 | 1.02 | 1.02 | 94 | 1008.1 |
| 20260507025023 | 13 | 0 | 0.0 | 8.0 | 0.00 | 1.02 | 1.02 | 94 | 1008.0 |
| 20260507024543 | 13 | 331 | 1.6 | 8.0 | 0.00 | 1.02 | 1.02 | 93 | 1007.9 |
| 20260507024022 | 14 | 0 | 0.0 | 8.0 | 0.00 | 1.02 | 1.02 | 95 | 1008.0 |
| 20260507023522 | 14 | 0 | 1.6 | 8.0 | 0.00 | 1.02 | 1.02 | 95 | 1007.7 |
| 20260507023045 | 14 | 291 | 1.6 | 8.0 | 0.00 | 1.02 | 1.02 | 95 | 1007.7 |
| 20260507022523 | 14 | 326 | 0.0 | 8.0 | 0.00 | 1.02 | 1.02 | 95 | 1007.4 |
| 20260507022021 | 14 | 260 | 1.6 | 8.0 | 0.00 | 1.02 | 1.02 | 95 | 1007.1 |
| 20260507021543 | 14 | 271 | 1.6 | 11.3 | 0.00 | 1.02 | 1.02 | 95 | 1007.1 |
| 20260507021023 | 14 | 257 | 3.2 | 11.3 | 0.00 | 1.02 | 1.02 | 95 | 1007.1 |
| 20260507020523 | 14 | 281 | 0.0 | 6.4 | 0.00 | 1.02 | 1.02 | 95 | 1007.1 |
| 20260507020106 | 14 | 0 | 1.6 | 6.4 | 0.00 | 1.02 | 1.02 | 95 | 1007.2 |
| 20260507015522 | 14 | 256 | 1.6 | 6.4 | 0.00 | 1.02 | 1.02 | 95 | 1007.1 |
| 20260507015020 | 14 | 259 | 1.6 | 6.4 | 0.00 | 1.02 | 1.02 | 95 | 1007.2 |
| 20260507014547 | 14 | 270 | 1.6 | 8.0 | 0.00 | 1.02 | 1.02 | 95 | 1007.3 |
| 20260507014021 | 14 | 264 | 1.6 | 8.0 | 0.00 | 1.02 | 1.02 | 95 | 1007.3 |
| 20260507013521 | 14 | 259 | 3.2 | 8.0 | 0.00 | 1.02 | 1.02 | 95 | 1007.3 |
| 20260507013051 | 14 | 269 | 1.6 | 9.7 | 0.00 | 1.02 | 1.02 | 95 | 1007.4 |
| 20260507012523 | 14 | 285 | 3.2 | 9.7 | 0.00 | 1.02 | 1.02 | 95 | 1007.3 |
| 20260507012022 | 14 | 277 | 3.2 | 8.0 | 0.00 | 1.02 | 1.02 | 95 | 1007.4 |
| 20260507011538 | 14 | 266 | 1.6 | 8.0 | 0.00 | 1.02 | 1.02 | 95 | 1007.3 |
| 20260507011022 | 14 | 267 | 1.6 | 8.0 | 0.00 | 1.02 | 1.02 | 95 | 1007.3 |
| 20260507010521 | 14 | 271 | 3.2 | 8.0 | 0.00 | 1.02 | 1.02 | 95 | 1007.3 |
| 20260507010037 | 14 | 245 | 3.2 | 8.0 | 0.00 | 1.02 | 1.02 | 95 | 1007.4 |
| 20260507005521 | 14 | 292 | 1.6 | 6.4 | 0.00 | 1.02 | 1.02 | 95 | 1007.4 |
| 20260507005022 | 14 | 265 | 3.2 | 6.4 | 0.00 | 1.02 | 1.02 | 95 | 1007.4 |
| 20260507004553 | 14 | 266 | 1.6 | 9.7 | 0.00 | 1.02 | 1.02 | 95 | 1007.3 |
| 20260507004021 | 14 | 0 | 0.0 | 9.7 | 0.00 | 1.02 | 1.02 | 95 | 1007.2 |
| 20260507003520 | 14 | 259 | 1.6 | 9.7 | 0.00 | 1.02 | 1.02 | 95 | 1007.1 |
| 20260507003050 | 14 | 261 | 1.6 | 17.7 | 0.00 | 1.02 | 1.02 | 95 | 1007.3 |
| 20260507002522 | 14 | 255 | 3.2 | 17.7 | 0.00 | 1.02 | 1.02 | 95 | 1007.3 |
| 20260507002021 | 14 | 264 | 4.8 | 17.7 | 0.00 | 1.02 | 1.02 | 95 | 1007.1 |
| 20260507001546 | 14 | 245 | 3.2 | 8.0 | 0.00 | 1.02 | 1.02 | 95 | 1007.0 |
| 20260507001021 | 14 | 267 | 1.6 | 9.7 | 0.03 | 1.02 | 1.02 | 95 | 1007.0 |
| 20260507000521 | 14 | 278 | 3.2 | 9.7 | 0.03 | 1.02 | 1.02 | 95 | 1007.0 |
| 20260507000041 | 14 | 256 | 3.2 | 9.7 | 0.03 | 1.02 | 1.02 | 95 | 1006.9 |
| 20260506235521 | 14 | 269 | 1.6 | 8.0 | 0.03 | 1.02 | 1.02 | 95 | 1007.0 |
| 20260506235022 | 14 | 253 | 1.6 | 12.9 | 0.03 | 1.02 | 1.02 | 95 | 1007.0 |
| 20260506234544 | 14 | 0 | 1.6 | 12.9 | 0.03 | 1.02 | 1.02 | 95 | 1006.9 |
| 20260506234022 | 14 | 265 | 1.6 | 12.9 | 0.03 | 1.02 | 1.02 | 95 | 1007.0 |
| 20260506233521 | 14 | 262 | 1.6 | 8.0 | 0.03 | 1.02 | 1.02 | 95 | 1007.0 |
| 20260506233046 | 14 | 0 | 0.0 | 6.4 | 0.03 | 1.02 | 1.02 | 95 | 1007.0 |
| 20260506232522 | 14 | 256 | 1.6 | 6.4 | 0.03 | 1.02 | 1.02 | 95 | 1006.9 |
| 20260506232020 | 14 | 284 | 1.6 | 6.4 | 0.03 | 1.02 | 1.02 | 95 | 1007.0 |
| 20260506231543 | 14 | 278 | 0.0 | 9.7 | 0.00 | 0.99 | 0.99 | 95 | 1007.1 |
| 20260506231020 | 14 | 338 | 0.0 | 9.7 | 0.00 | 0.99 | 0.99 | 95 | 1007.1 |
| 20260506230523 | 14 | 274 | 1.6 | 9.7 | 0.00 | 0.99 | 0.99 | 95 | 1007.2 |
| 20260506230049 | 14 | 4 | 1.6 | 8.0 | 0.00 | 0.99 | 0.99 | 95 | 1007.3 |
| 20260506225523 | 14 | 273 | 1.6 | 8.0 | 0.00 | 0.99 | 0.99 | 95 | 1007.2 |
| 20260506225023 | 14 | 0 | 1.6 | 6.4 | 0.00 | 0.99 | 0.99 | 95 | 1007.3 |
| 20260506224537 | 14 | 0 | 1.6 | 9.7 | 0.00 | 0.99 | 0.99 | 95 | 1007.2 |
| 20260506224020 | 14 | 252 | 1.6 | 9.7 | 0.00 | 0.99 | 0.99 | 95 | 1007.3 |
| 20260506223520 | 15 | 0 | 0.0 | 8.0 | 0.03 | 0.99 | 0.99 | 95 | 1007.3 |
| 20260506223043 | 15 | 0 | 0.0 | 8.0 | 0.08 | 0.99 | 0.99 | 95 | 1007.4 |
| 20260506222520 | 15 | 257 | 1.6 | 8.0 | 0.10 | 0.99 | 0.99 | 95 | 1007.4 |
| 20260506222026 | 15 | 0 | 0.0 | 8.0 | 0.10 | 0.99 | 0.99 | 95 | 1007.5 |
| 20260506221548 | 15 | 336 | 1.6 | 8.0 | 0.13 | 0.99 | 0.99 | 95 | 1007.4 |
| 20260506221024 | 15 | 42 | 1.6 | 6.4 | 0.13 | 0.99 | 0.99 | 95 | 1007.4 |
| 20260506220521 | 15 | 299 | 0.0 | 6.4 | 0.15 | 0.99 | 0.99 | 95 | 1007.6 |
| 20260506220046 | 15 | 0 | 1.6 | 6.4 | 0.20 | 0.99 | 0.99 | 95 | 1007.6 |
| 20260506215522 | 15 | 276 | 0.0 | 3.2 | 0.25 | 0.99 | 0.99 | 95 | 1007.6 |
| 20260506215026 | 15 | 0 | 0.0 | 4.8 | 0.28 | 0.99 | 0.99 | 95 | 1007.7 |
| 20260506214542 | 15 | 83 | 1.6 | 4.8 | 0.30 | 0.99 | 0.99 | 95 | 1007.6 |
| 20260506214023 | 15 | 300 | 0.0 | 6.4 | 0.28 | 0.97 | 0.97 | 95 | 1007.6 |
| 20260506213520 | 15 | 328 | 0.0 | 12.9 | 0.28 | 0.94 | 0.94 | 95 | 1007.7 |
| 20260506213056 | 15 | 0 | 1.6 | 12.9 | 0.25 | 0.91 | 0.91 | 95 | 1007.8 |
| 20260506212521 | 15 | 255 | 1.6 | 12.9 | 0.23 | 0.89 | 0.89 | 95 | 1007.7 |
| 20260506212022 | 15 | 6 | 1.6 | 8.0 | 0.25 | 0.89 | 0.89 | 95 | 1007.8 |
| 20260506211538 | 15 | 289 | 0.0 | 8.0 | 0.28 | 0.86 | 0.86 | 95 | 1007.9 |
| 20260506211020 | 15 | 23 | 1.6 | 11.3 | 0.30 | 0.86 | 0.86 | 95 | 1007.8 |
| 20260506210524 | 15 | 0 | 1.6 | 11.3 | 0.30 | 0.84 | 0.84 | 95 | 1008.0 |
| 20260506210047 | 15 | 255 | 0.0 | 6.4 | 0.25 | 0.79 | 0.79 | 95 | 1007.8 |
| 20260506205522 | 15 | 300 | 0.0 | 4.8 | 0.23 | 0.74 | 0.74 | 94 | 1008.0 |
| 20260506205022 | 15 | 20 | 0.0 | 4.8 | 0.20 | 0.71 | 0.71 | 94 | 1008.0 |
| 20260506204543 | 15 | 275 | 0.0 | 8.0 | 0.18 | 0.69 | 0.69 | 94 | 1008.0 |
| 20260506204021 | 15 | 0 | 0.0 | 8.0 | 0.15 | 0.66 | 0.66 | 94 | 1008.2 |
| 20260506203522 | 15 | 271 | 0.0 | 3.2 | 0.15 | 0.66 | 0.66 | 94 | 1008.2 |
| 20260506203039 | 15 | 0 | 0.0 | 3.2 | 0.15 | 0.66 | 0.66 | 94 | 1008.1 |
| 20260506202523 | 15 | 287 | 0.0 | 6.4 | 0.13 | 0.64 | 0.64 | 94 | 1008.2 |
| 20260506202023 | 15 | 0 | 0.0 | 6.4 | 0.15 | 0.64 | 0.64 | 93 | 1008.1 |
| 20260506201541 | 16 | 260 | 0.0 | 6.4 | 0.10 | 0.58 | 0.58 | 93 | 1008.2 |
| 20260506201023 | 16 | 278 | 1.6 | 6.4 | 0.08 | 0.56 | 0.56 | 93 | 1008.3 |
| 20260506200522 | 16 | 262 | 1.6 | 8.0 | 0.08 | 0.53 | 0.53 | 93 | 1008.2 |
| 20260506200044 | 16 | 257 | 1.6 | 8.0 | 0.08 | 0.53 | 0.53 | 93 | 1008.3 |
| 20260506195522 | 16 | 272 | 0.0 | 3.2 | 0.08 | 0.51 | 0.51 | 94 | 1008.3 |
| 20260506195022 | 16 | 312 | 0.0 | 3.2 | 0.08 | 0.51 | 0.51 | 94 | 1008.2 |
| 20260506194547 | 16 | 0 | 0.0 | 1.6 | 0.10 | 0.51 | 0.51 | 94 | 1008.3 |
| 20260506194022 | 16 | 0 | 0.0 | 1.6 | 0.13 | 0.51 | 0.51 | 94 | 1008.1 |
| 20260506193522 | 16 | 0 | 0.0 | 3.2 | 0.13 | 0.51 | 0.51 | 94 | 1008.2 |
| 20260506193043 | 16 | 274 | 0.0 | 3.2 | 0.15 | 0.51 | 0.51 | 94 | 1008.3 |
| 20260506192522 | 16 | 276 | 0.0 | 3.2 | 0.18 | 0.51 | 0.51 | 94 | 1008.2 |
| 20260506192021 | 16 | 278 | 0.0 | 1.6 | 0.18 | 0.48 | 0.48 | 94 | 1008.1 |
| 20260506191542 | 16 | 0 | 0.0 | 4.8 | 0.18 | 0.48 | 0.48 | 93 | 1008.3 |
| 20260506191023 | 16 | 286 | 0.0 | 4.8 | 0.20 | 0.48 | 0.48 | 93 | 1008.6 |
| 20260506190520 | 16 | 0 | 0.0 | 1.6 | 0.20 | 0.46 | 0.46 | 93 | 1008.4 |
| 20260506190038 | 16 | 0 | 0.0 | 1.6 | 0.20 | 0.46 | 0.46 | 93 | 1008.6 |
| 20260506185524 | 16 | 0 | 0.0 | 3.2 | 0.20 | 0.43 | 0.43 | 93 | 1008.6 |
| 20260506185022 | 16 | 333 | 0.0 | 3.2 | 0.23 | 0.41 | 0.41 | 93 | 1008.7 |
| 20260506184551 | 16 | 257 | 0.0 | 3.2 | 0.28 | 0.41 | 0.41 | 92 | 1009.0 |
| 20260506184024 | 16 | 258 | 0.0 | 1.6 | 0.38 | 0.38 | 0.38 | 92 | 1009.1 |
| 20260506183520 | 16 | 0 | 0.0 | 3.2 | 0.38 | 0.38 | 0.38 | 92 | 1008.8 |
| 20260506183055 | 16 | 0 | 0.0 | 3.2 | 0.36 | 0.36 | 0.36 | 92 | 1009.3 |
| 20260506182522 | 16 | 283 | 0.0 | 1.6 | 0.33 | 0.33 | 0.33 | 91 | 1009.3 |
| 20260506182026 | 16 | 0 | 0.0 | 1.6 | 0.30 | 0.30 | 0.30 | 91 | 1009.1 |
| 20260506181611 | 16 | 284 | 0.0 | 1.6 | 0.28 | 0.28 | 0.28 | 90 | 1009.1 |
| 20260506181026 | 16 | 0 | 0.0 | 0.0 | 0.28 | 0.28 | 0.28 | 89 | 1009.1 |
| 20260506180523 | 17 | 0 | 0.0 | 1.6 | 0.25 | 0.25 | 0.25 | 88 | 1009.2 |
| 20260506180044 | 17 | 284 | 0.0 | 8.0 | 0.25 | 0.25 | 0.25 | 87 | 1009.2 |
| 20260506175523 | 17 | 283 | 0.0 | 8.0 | 0.23 | 0.23 | 0.23 | 84 | 1009.3 |
| 20260506175022 | 18 | 0 | 0.0 | 9.7 | 0.18 | 0.18 | 0.18 | 81 | 1009.6 |
| 20260506174541 | 19 | 283 | 0.0 | 9.7 | 0.13 | 0.13 | 0.13 | 76 | 1009.4 |
| 20260506174022 | 20 | 265 | 3.2 | 9.7 | 0.00 | 0.00 | 0.00 | 67 | 1009.2 |
| 20260506173526 | 21 | 0 | 1.6 | 11.3 | 0.00 | 0.00 | 0.00 | 63 | 1008.8 |
| 20260506173054 | 21 | 270 | 3.2 | 24.1 | 0.00 | 0.00 | 0.00 | 60 | 1008.6 |
| 20260506172521 | 21 | 257 | 4.8 | 24.1 | 0.00 | 0.00 | 0.00 | 60 | 1008.6 |
| 20260506172022 | 21 | 279 | 3.2 | 14.5 | 0.00 | 0.00 | 0.00 | 60 | 1008.7 |
| 20260506171546 | 21 | 287 | 4.8 | 19.3 | 0.00 | 0.00 | 0.00 | 60 | 1008.8 |
| 20260506171021 | 21 | 226 | 8.0 | 19.3 | 0.00 | 0.00 | 0.00 | 60 | 1009.0 |
| 20260506170522 | 21 | 252 | 4.8 | 14.5 | 0.00 | 0.00 | 0.00 | 60 | 1009.0 |
| 20260506170048 | 21 | 356 | 3.2 | 12.9 | 0.00 | 0.00 | 0.00 | 61 | 1009.0 |
| 20260506165522 | 21 | 255 | 3.2 | 11.3 | 0.00 | 0.00 | 0.00 | 61 | 1009.2 |
| 20260506165025 | 21 | 258 | 3.2 | 11.3 | 0.00 | 0.00 | 0.00 | 60 | 1009.1 |
| 20260506164539 | 21 | 256 | 1.6 | 11.3 | 0.00 | 0.00 | 0.00 | 63 | 1009.2 |
| 20260506164021 | 21 | 0 | 1.6 | 9.7 | 0.00 | 0.00 | 0.00 | 63 | 1009.3 |
| 20260506163523 | 21 | 100 | 3.2 | 9.7 | 0.00 | 0.00 | 0.00 | 63 | 1009.4 |
| 20260506163047 | 21 | 263 | 3.2 | 9.7 | 0.00 | 0.00 | 0.00 | 64 | 1009.5 |
| 20260506162522 | 20 | 35 | 1.6 | 8.0 | 0.00 | 0.00 | 0.00 | 64 | 1009.7 |
| 20260506162022 | 20 | 2 | 0.0 | 11.3 | 0.00 | 0.00 | 0.00 | 65 | 1009.6 |
| 20260506161548 | 20 | 286 | 3.2 | 14.5 | 0.00 | 0.00 | 0.00 | 64 | 1009.8 |
| 20260506161022 | 20 | 0 | 4.8 | 14.5 | 0.00 | 0.00 | 0.00 | 65 | 1009.8 |
| 20260506160522 | 20 | 271 | 1.6 | 14.5 | 0.00 | 0.00 | 0.00 | 66 | 1010.1 |
| 20260506160053 | 20 | 255 | 4.8 | 16.1 | 0.00 | 0.00 | 0.00 | 65 | 1010.3 |
| 20260506155522 | 20 | 266 | 8.0 | 16.1 | 0.00 | 0.00 | 0.00 | 65 | 1010.5 |
| 20260506155022 | 20 | 284 | 3.2 | 11.3 | 0.00 | 0.00 | 0.00 | 66 | 1010.6 |
| 20260506154546 | 20 | 78 | 3.2 | 11.3 | 0.00 | 0.00 | 0.00 | 66 | 1010.6 |
| 20260506154023 | 20 | 221 | 3.2 | 12.9 | 0.00 | 0.00 | 0.00 | 66 | 1010.7 |
| 20260506153524 | 20 | 279 | 3.2 | 14.5 | 0.00 | 0.00 | 0.00 | 66 | 1010.8 |
| 20260506153059 | 20 | 258 | 4.8 | 14.5 | 0.00 | 0.00 | 0.00 | 65 | 1010.9 |
| 20260506152522 | 20 | 277 | 1.6 | 12.9 | 0.00 | 0.00 | 0.00 | 66 | 1010.9 |
| 20260506152023 | 20 | 281 | 4.8 | 12.9 | 0.00 | 0.00 | 0.00 | 65 | 1010.9 |
| 20260506151543 | 20 | 88 | 3.2 | 12.9 | 0.00 | 0.00 | 0.00 | 66 | 1011.0 |
| 20260506151023 | 20 | 291 | 6.4 | 12.9 | 0.00 | 0.00 | 0.00 | 66 | 1011.0 |
| 20260506150521 | 20 | 254 | 3.2 | 9.7 | 0.00 | 0.00 | 0.00 | 67 | 1010.8 |
| 20260506150057 | 20 | 305 | 3.2 | 12.9 | 0.00 | 0.00 | 0.00 | 67 | 1010.8 |
| 20260506145523 | 20 | 250 | 3.2 | 12.9 | 0.00 | 0.00 | 0.00 | 68 | 1011.0 |
| 20260506145023 | 20 | 284 | 4.8 | 9.7 | 0.00 | 0.00 | 0.00 | 68 | 1011.0 |
| 20260506144554 | 20 | 79 | 1.6 | 8.0 | 0.00 | 0.00 | 0.00 | 69 | 1010.9 |
| 20260506144021 | 20 | 269 | 1.6 | 6.4 | 0.00 | 0.00 | 0.00 | 69 | 1010.8 |
| 20260506143522 | 19 | 255 | 1.6 | 12.9 | 0.00 | 0.00 | 0.00 | 70 | 1010.9 |
| 20260506143044 | 19 | 262 | 1.6 | 12.9 | 0.00 | 0.00 | 0.00 | 72 | 1010.8 |
| 20260506142523 | 19 | 271 | 4.8 | 12.9 | 0.00 | 0.00 | 0.00 | 71 | 1010.9 |
| 20260506142022 | 18 | 328 | 1.6 | 9.7 | 0.00 | 0.00 | 0.00 | 72 | 1010.8 |
| 20260506141538 | 18 | 275 | 3.2 | 12.9 | 0.00 | 0.00 | 0.00 | 72 | 1010.7 |
| 20260506141023 | 18 | 316 | 3.2 | 12.9 | 0.00 | 0.00 | 0.00 | 72 | 1010.6 |
| 20260506140523 | 18 | 251 | 3.2 | 12.9 | 0.00 | 0.00 | 0.00 | 73 | 1010.7 |
| 20260506140039 | 18 | 0 | 1.6 | 12.9 | 0.00 | 0.00 | 0.00 | 74 | 1010.7 |
| 20260506135522 | 18 | 269 | 3.2 | 12.9 | 0.00 | 0.00 | 0.00 | 74 | 1010.8 |
| 20260506135020 | 18 | 0 | 1.6 | 9.7 | 0.00 | 0.00 | 0.00 | 74 | 1010.8 |
| 20260506134536 | 17 | 285 | 0.0 | 9.7 | 0.00 | 0.00 | 0.00 | 75 | 1010.7 |
| 20260506134020 | 17 | 274 | 1.6 | 12.9 | 0.00 | 0.00 | 0.00 | 76 | 1010.8 |
| 20260506133522 | 17 | 257 | 3.2 | 12.9 | 0.00 | 0.00 | 0.00 | 75 | 1010.9 |
| 20260506133047 | 17 | 250 | 3.2 | 9.7 | 0.00 | 0.00 | 0.00 | 75 | 1011.0 |
| 20260506132522 | 17 | 248 | 3.2 | 11.3 | 0.00 | 0.00 | 0.00 | 75 | 1011.2 |
| 20260506132022 | 17 | 315 | 3.2 | 11.3 | 0.00 | 0.00 | 0.00 | 75 | 1011.1 |
| 20260506131541 | 17 | 83 | 0.0 | 11.3 | 0.00 | 0.00 | 0.00 | 75 | 1011.2 |
| 20260506131024 | 17 | 265 | 3.2 | 11.3 | 0.00 | 0.00 | 0.00 | 75 | 1011.1 |
| 20260506130523 | 17 | 297 | 3.2 | 11.3 | 0.00 | 0.00 | 0.00 | 75 | 1011.2 |
| 20260506130039 | 17 | 80 | 1.6 | 12.9 | 0.00 | 0.00 | 0.00 | 75 | 1011.1 |
| 20260506125522 | 17 | 302 | 1.6 | 12.9 | 0.00 | 0.00 | 0.00 | 75 | 1011.2 |
| 20260506125022 | 17 | 258 | 4.8 | 12.9 | 0.00 | 0.00 | 0.00 | 75 | 1011.2 |
| 20260506124539 | 17 | 264 | 1.6 | 12.9 | 0.00 | 0.00 | 0.00 | 76 | 1011.2 |
| 20260506124023 | 17 | 278 | 3.2 | 17.7 | 0.00 | 0.00 | 0.00 | 76 | 1011.1 |
| 20260506123523 | 17 | 274 | 3.2 | 17.7 | 0.00 | 0.00 | 0.00 | 76 | 1011.0 |
| 20260506123038 | 17 | 285 | 4.8 | 11.3 | 0.00 | 0.00 | 0.00 | 76 | 1010.9 |
| 20260506122523 | 17 | 248 | 3.2 | 11.3 | 0.00 | 0.00 | 0.00 | 76 | 1010.9 |
| 20260506122024 | 17 | 276 | 1.6 | 12.9 | 0.00 | 0.00 | 0.00 | 76 | 1011.1 |
| 20260506121543 | 17 | 278 | 1.6 | 12.9 | 0.00 | 0.00 | 0.00 | 76 | 1011.3 |
| 20260506121022 | 17 | 272 | 3.2 | 12.9 | 0.00 | 0.00 | 0.00 | 77 | 1011.2 |
| 20260506120522 | 16 | 8 | 1.6 | 9.7 | 0.00 | 0.00 | 0.00 | 77 | 1011.3 |
| 20260506120045 | 16 | 288 | 1.6 | 8.0 | 0.00 | 0.00 | 0.00 | 78 | 1011.3 |
| 20260506115521 | 16 | 276 | 1.6 | 8.0 | 0.00 | 0.00 | 0.00 | 78 | 1011.5 |
| 20260506115022 | 16 | 0 | 1.6 | 8.0 | 0.00 | 0.00 | 0.00 | 78 | 1011.6 |
| 20260506114539 | 16 | 105 | 1.6 | 9.7 | 0.00 | 0.00 | 0.00 | 78 | 1011.5 |
| 20260506114023 | 16 | 255 | 1.6 | 9.7 | 0.00 | 0.00 | 0.00 | 78 | 1011.7 |
| 20260506113522 | 16 | 276 | 1.6 | 9.7 | 0.00 | 0.00 | 0.00 | 79 | 1011.5 |
| 20260506113046 | 16 | 290 | 1.6 | 6.4 | 0.00 | 0.00 | 0.00 | 79 | 1011.6 |
| 20260506112522 | 16 | 0 | 1.6 | 6.4 | 0.00 | 0.00 | 0.00 | 79 | 1011.7 |
| 20260506112022 | 16 | 0 | 0.0 | 6.4 | 0.00 | 0.00 | 0.00 | 79 | 1011.8 |
| 20260506111545 | 16 | 265 | 0.0 | 6.4 | 0.00 | 0.00 | 0.00 | 79 | 1011.7 |
| 20260506111020 | 15 | 25 | 1.6 | 6.4 | 0.00 | 0.00 | 0.00 | 79 | 1011.7 |
| 20260506110520 | 15 | 269 | 3.2 | 9.7 | 0.00 | 0.00 | 0.00 | 79 | 1011.8 |
| 20260506110043 | 15 | 0 | 0.0 | 9.7 | 0.00 | 0.00 | 0.00 | 80 | 1011.7 |
| 20260506105522 | 15 | 0 | 0.0 | 8.0 | 0.00 | 0.00 | 0.00 | 80 | 1011.7 |
| 20260506105022 | 15 | 285 | 0.0 | 11.3 | 0.00 | 0.00 | 0.00 | 80 | 1011.7 |
| 20260506104538 | 15 | 290 | 0.0 | 11.3 | 0.00 | 0.00 | 0.00 | 80 | 1011.9 |
| 20260506104023 | 15 | 276 | 1.6 | 11.3 | 0.00 | 0.00 | 0.00 | 80 | 1011.9 |
| 20260506103525 | 15 | 335 | 0.0 | 4.8 | 0.00 | 0.00 | 0.00 | 80 | 1011.8 |
| 20260506103050 | 15 | 144 | 0.0 | 4.8 | 0.00 | 0.00 | 0.00 | 80 | 1011.6 |
| 20260506102523 | 15 | 0 | 0.0 | 4.8 | 0.00 | 0.00 | 0.00 | 80 | 1011.6 |
| 20260506102021 | 15 | 0 | 0.0 | 3.2 | 0.00 | 0.00 | 0.00 | 80 | 1011.6 |
| 20260506101538 | 15 | 291 | 0.0 | 4.8 | 0.00 | 0.00 | 0.00 | 80 | 1011.7 |
| 20260506101023 | 15 | 0 | 0.0 | 4.8 | 0.00 | 0.00 | 0.00 | 80 | 1011.6 |
| 20260506100523 | 15 | 0 | 0.0 | 4.8 | 0.00 | 0.00 | 0.00 | 80 | 1011.7 |
| 20260506100039 | 15 | 0 | 0.0 | 4.8 | 0.00 | 0.00 | 0.00 | 80 | 1011.8 |
| 20260506095523 | 15 | 0 | 0.0 | 4.8 | 0.00 | 0.00 | 0.00 | 79 | 1011.7 |
| 20260506095021 | 15 | 336 | 1.6 | 8.0 | 0.00 | 0.00 | 0.00 | 79 | 1011.6 |
| 20260506094542 | 15 | 324 | 0.0 | 8.0 | 0.00 | 0.00 | 0.00 | 79 | 1011.6 |
| 20260506094022 | 15 | 266 | 0.0 | 8.0 | 0.00 | 0.00 | 0.00 | 79 | 1011.5 |
| 20260506093522 | 15 | 250 | 0.0 | 3.2 | 0.00 | 0.00 | 0.00 | 79 | 1011.3 |
| 20260506093038 | 15 | 302 | 0.0 | 4.8 | 0.00 | 0.00 | 0.00 | 79 | 1011.6 |
| 20260506092523 | 15 | 0 | 0.0 | 4.8 | 0.00 | 0.00 | 0.00 | 78 | 1011.7 |
| 20260506092023 | 15 | 317 | 0.0 | 3.2 | 0.00 | 0.00 | 0.00 | 78 | 1011.6 |
| 20260506091546 | 15 | 304 | 0.0 | 6.4 | 0.00 | 0.00 | 0.00 | 78 | 1011.5 |
| 20260506091023 | 15 | 0 | 0.0 | 6.4 | 0.00 | 0.00 | 0.00 | 77 | 1011.6 |
| 20260506090522 | 15 | 0 | 1.6 | 6.4 | 0.00 | 0.00 | 0.00 | 77 | 1011.5 |
| 20260506090038 | 15 | 311 | 0.0 | 3.2 | 0.00 | 0.00 | 0.00 | 77 | 1011.5 |
| 20260506085524 | 15 | 0 | 0.0 | 8.0 | 0.00 | 0.00 | 0.00 | 77 | 1011.5 |
| 20260506085022 | 15 | 289 | 0.0 | 8.0 | 0.00 | 0.00 | 0.00 | 76 | 1011.6 |
| 20260506084548 | 16 | 277 | 0.0 | 8.0 | 0.00 | 0.00 | 0.00 | 76 | 1011.5 |
| 20260506084020 | 16 | 252 | 0.0 | 6.4 | 0.00 | 0.00 | 0.00 | 76 | 1011.5 |
| 20260506083523 | 16 | 0 | 1.6 | 4.8 | 0.00 | 0.00 | 0.00 | 75 | 1011.5 |
| 20260506083043 | 16 | 0 | 0.0 | 6.4 | 0.00 | 0.00 | 0.00 | 75 | 1011.5 |
| 20260506082519 | 16 | 35 | 1.6 | 8.0 | 0.00 | 0.00 | 0.00 | 75 | 1011.5 |
| 20260506082023 | 16 | 263 | 1.6 | 8.0 | 0.00 | 0.00 | 0.00 | 75 | 1011.4 |
| 20260506081538 | 16 | 0 | 1.6 | 8.0 | 0.00 | 0.00 | 0.00 | 74 | 1011.5 |
| 20260506081026 | 16 | 305 | 0.0 | 4.8 | 0.00 | 0.00 | 0.00 | 74 | 1011.4 |
| 20260506080521 | 16 | 294 | 0.0 | 4.8 | 0.00 | 0.00 | 0.00 | 74 | 1011.4 |